Tracking 19476 objects as of 18-Jan-2019
HD Live streaming from Space Station
objects crossing your sky now

OPS 8364 (DMSP 4)

Track OPS 8364 (DMSP 4) now!
10-day predictions
OPS 8364 (DMSP 4) is classified as:


NORAD ID: 6787
Int'l Code: 1973-054A
Perigee: 773.5 km
Apogee: 812.2 km
Inclination: 98.8 °
Period: 100.6 minutes
Semi major axis: 7163 km
RCS: 1.7278 m2 (large)
Launch date: August 17, 1973
Source: United States (US)
Launch site: AIR FORCE WESTERN TEST RANGE (AFWTR)
aabbcc
Your satellite tracking list
Your tracking list is empty




NASA's NSSDC Master Catalog

Two Line Element Set (TLE):
1  6787U 73054A   19017.56397737  .00000026  00000-0  26420-4 0  9998
2  6787  98.7702 194.5186 0027045  75.0052 285.4122 14.31796719364379
Source of the keplerian elements: AFSPC